Location: Ellerstadt
(49.4644°N, 8.2615°E)
Time: 00:07:40
(UTC+00:00)

SL-4 R/B - Pass Details

Date: 03 March 2021
Orbit: 428 x 663 km, 51.6° (Epoch: 13 April)

Event Time Altitude Azimuth Distance (km) Brightness Sun altitude
Rises 18:11:07 0° 282° (WNW) 2,509 7.4 -10.2°
Reaches altitude 10° 18:13:21 10° 286° (WNW) 1,601 5.8 -10.6°
Maximum altitude 18:16:54 64° 8° (N) 494 1.7 -11.1°
Enters shadow 18:19:15 19° 87° (E) 1,116 2.9 -11.5°
